#timestamp,LO_Frequency,Hit,StdDev 
1701583215.8,286046990.7,N
1701583235.7,286046994.7,N
1701583255.5,286046993.9,N
1701583275.3,286046993.7,N
1701583295.2,286046992.4,N
1701583315.0,286046993.7,N
1701583315.9,286046993.7,N
1701583335.8,286046997.8,N
1701583355.6,286046998.8,N
1701583375.4,286047001.0,N
1701583395.3,286046995.5,N
1701583415.1,286046997.9,N
1701583435.8,286046994.2,N
1701583455.7,286046993.3,N
1701583475.5,286046994.4,N
1701583495.4,286046992.2,N
1701583515.2,286046989.1,N
1701583535.0,286046991.6,N
1701583535.9,286046991.6,N
1701583555.8,286046989.8,N
1701583575.6,286046988.3,N
1701583595.4,286046988.4,N
1701583615.3,286046983.2,Y
1701583635.1,286046984.4,P
1701583655.9,286046991.5,N
1701583675.7,286046988.3,N
1701583695.5,286046987.7,Y
1701583715.4,286047000.4,P
1701583735.2,286046999.7,N
1701583755.1,286047009.0,N
1701583756.0,286047009.0,N
1701583775.8,286047012.3,N
1701583795.6,286047011.0,N
1701583815.5,286047011.1,N
1701583835.3,286047010.5,N
1701583855.1,286047014.7,N
1701583875.9,286047020.0,N
1701583895.7,286047020.9,N
1701583915.6,286047020.2,N
1701583935.4,286047018.0,N
1701583955.2,286047015.2,N
1701583975.1,286047016.3,N
1701583976.0,286047016.3,N
1701583995.8,286047013.1,N
1701584015.6,286047008.7,N
1701584035.5,286047007.2,N
1701584055.3,286047005.3,N
1701584075.2,286047002.5,N
1701584095.9,286047004.7,N
1701584115.7,286047006.5,N
1701584135.6,286047006.0,N
1701584155.4,286047009.1,N
1701584175.2,286047003.4,N
1701584195.1,286047008.9,N
1701584196.0,286047008.9,N
1701584215.8,286047016.6,N
1701584235.7,286047018.1,N
1701584255.5,286047016.8,N
1701584275.3,286047014.2,N
1701584295.2,286047009.6,N
1701584315.0,286047006.2,N
1701584315.9,286047006.2,N
1701584335.8,286047006.1,N
1701584355.6,286047005.9,N
1701584375.4,286047005.2,N
1701584395.3,286047003.3,N
1701584415.1,286047001.8,N
1701584435.9,286047002.3,N
1701584455.7,286047001.7,N
1701584475.5,286047001.1,N
1701584495.4,286047010.0,N
1701584515.2,286047016.1,Y
1701584535.0,286047005.1,P
1701584535.9,286047005.1,P
1701584555.8,286047000.1,N
1701584575.6,286047000.5,N
1701584595.5,286047002.5,N
1701584615.3,286046999.6,N
1701584635.1,286046998.5,N
1701584655.9,286046998.8,N
1701584675.7,286046997.9,N
1701584695.5,286046999.1,N
1701584715.4,286046996.1,N
1701584735.2,286046992.7,N
1701584755.1,286046990.3,N
1701584756.0,286046990.3,N
1701584775.8,286046992.3,N
1701584795.6,286046992.9,N
1701584815.5,286046991.2,N
1701584835.3,286046993.1,N
1701584855.1,286046994.4,N
1701584875.9,286046985.3,N
1701584895.7,286046987.5,N
1701584915.6,286046989.5,N
1701584935.4,286046989.5,N
1701584955.2,286046990.4,N
1701584975.1,286046991.2,N
1701584976.0,286046991.2,N
1701584995.8,286046985.6,N
1701585015.7,286046987.7,N
1701585035.5,286046991.8,N
1701585055.3,286046993.3,N
1701585075.2,286046996.7,N
1701585095.9,286046994.5,N
1701585115.7,286046997.8,N
1701585135.6,286046997.5,N
1701585155.4,286046995.5,N
1701585175.3,286046996.3,N
1701585195.1,286046998.2,N
1701585196.0,286046998.2,N
1701585215.8,286046996.5,N
1701585235.7,286046999.5,N
1701585255.5,286047000.1,N
1701585275.3,286047000.8,N
1701585295.2,286047000.1,N
1701585315.0,286046998.4,N
1701585315.9,286046998.4,N
1701585335.8,286046997.2,N
1701585355.6,286046996.5,N
1701585375.4,286046998.6,N
1701585395.3,286046995.5,N
1701585415.1,286046999.4,N
1701585435.8,286047005.1,N
1701585455.7,286047002.7,N
1701585475.5,286046995.1,N
1701585495.4,286046996.2,N
1701585515.2,286046998.0,N
1701585535.0,286046990.9,N
1701585535.9,286046990.9,N
1701585555.8,286046995.0,N
1701585575.6,286047000.5,N
1701585595.4,286046995.1,N
1701585615.3,286046996.1,N
1701585635.1,286046993.7,N
1701585685.9,286046994.6,E
1701585695.8,286046998.7,N
1701585715.6,286047012.1,P
1701585735.5,286047012.4,N
1701585755.3,286047011.7,N
1701585775.2,286047011.8,N
1701585795.9,286047009.1,N
1701585815.7,286047006.4,N
1701585835.6,286047005.0,N
1701585855.4,286047006.7,N
1701585875.2,286047003.0,N
1701585895.1,286047004.4,N
1701585896.0,286047004.4,N
1701585915.8,286047002.7,N
1701585935.7,286046994.9,N
1701585955.5,286046999.9,N
1701585975.3,286047002.4,N
1701585995.2,286046998.7,N
1701586015.0,286046996.1,N
1701586015.9,286046996.1,N
1701586035.7,286046996.8,N
1701586055.6,286046999.4,N
1701586075.4,286047000.9,N
1701586095.3,286047005.5,N
1701586115.1,286047008.3,N
1701586116.0,286047008.3,N
1701586135.8,286047005.6,N
1701586155.7,286047002.1,N
1701586175.5,286046998.2,N
1701586195.3,286046998.2,N
1701586215.2,286047000.0,N
1701586235.0,286047002.8,N
1701586235.9,286047002.8,N
1701586255.8,286047005.9,N
1701586275.6,286047002.0,N
1701586295.4,286047002.4,N
1701586315.4,286047005.3,N
1701586335.2,286047005.0,N
1701586355.0,286047002.8,N
1701586355.9,286047002.8,N
1701586375.8,286047000.5,N
1701586395.6,286046999.8,N
1701586415.5,286047005.7,N
1701586435.3,286047001.4,N
1701586455.1,286047002.8,N
1701586475.9,286047003.3,N
1701586495.7,286047005.9,N
1701586515.5,286047004.4,N
1701586535.4,286047004.3,N
1701586555.2,286047001.3,N
1701586575.1,286047003.8,N
1701586576.0,286047003.8,N
1701586595.8,286047007.2,N
1701586615.6,286047010.5,Y
1701586635.5,286047004.9,P
1701586655.3,286047012.2,P
1701586675.1,286047012.7,P
1701586695.9,286047018.4,Y
1701586715.7,286047007.8,P
1701586735.6,286047005.4,P
1701586755.4,286047003.0,N
1701586775.2,286047008.7,Y
1701586795.1,286046997.3,P
1701586796.0,286046997.3,N
